This is the latest recevied weather packets stored in our database for station/object N0NAI-13. If no packets are shown the sender has not sent any weather packets the latest 10 day(s).
| Time | Temp. | Humidity | Pressure | Rain* | Wind** | Luminosity | Snow |
|---|---|---|---|---|---|---|---|
| 1777687533 | 5.56° C | 54% | 1021 hPa | 0 mm | - | - | - |
| 1777686918 | 6.11° C | 57% | 1020.8 hPa | 0 mm | - | - | - |
| 1777686321 | 6.11° C | 56% | 1020.8 hPa | 0 mm | - | - | - |
| 1777685724 | 6.67° C | 52% | 1020.7 hPa | 0 mm | - | - | - |
| 1777685127 | 7.22° C | 52% | 1020.7 hPa | 0 mm | - | - | - |
| 1777684529 | 7.78° C | 48% | 1020.6 hPa | 0 mm | - | - | - |
| 1777683932 | 8.89° C | 43% | 1020.5 hPa | 0 mm | - | - | - |
| 1777683317 | 9.44° C | 40% | 1020.5 hPa | 0 mm | - | - | - |
| 1777682720 | 10.56° C | 39% | 1020.4 hPa | 0 mm | - | - | - |
| 1777682123 | 11.11° C | 36% | 1020.3 hPa | 0 mm | - | - | - |
| 1777681525 | 12.22° C | 36% | 1020.3 hPa | 0 mm | - | - | - |
| 1777680922 | 12.22° C | 34% | 1020.2 hPa | 0 mm | - | - | - |
| 1777680319 | 13.89° C | 32% | 1020 hPa | 0 mm | - | - | - |
| 1777679716 | 14.44° C | 31% | 1020 hPa | 0 mm | - | - | - |
| 1777679119 | 14.44° C | 31% | 1020 hPa | 0 mm | - | - | - |
| 1777678522 | 14.44° C | 32% | 1020 hPa | 0 mm | - | - | - |
| 1777677924 | 14.44° C | 31% | 1020 hPa | 0 mm | - | - | - |
| 1777677328 | 15° C | 29% | 1020.1 hPa | 0 mm | - | - | - |
| 1777676731 | 14.44° C | 31% | 1020 hPa | 0 mm | - | - | - |
| 1777676116 | 15° C | 30% | 1019.8 hPa | 0 mm | - | - | - |
| 1777675519 | 14.44° C | 31% | 1019.9 hPa | 0 mm | - | - | - |
| 1777674921 | 13.89° C | 32% | 1020 hPa | 0 mm | - | - | - |
| 1777674325 | 16.11° C | 31% | 1019.9 hPa | 0 mm | - | - | - |
| 1777673727 | 15.56° C | 31% | 1019.8 hPa | 0 mm | - | - | - |
| 1777673125 | 15° C | 31% | 1019.9 hPa | 0 mm | - | - | - |
* Rain latest hour (hover to see other rain measurements)
** Current wind speed in m/s (hover to see current wind gust speed)